Tracking 17140 objects as of 1-July-2015
HD Live streaming from Space Station

SL-16 DEB

Track SL-16 DEB now!
10-day predictions
SL-16 DEB is classified as:


NORAD ID: 22289
Int'l Code: 1992-093D
Perigee: 750.9 km
Apogee: 838.5 km
Inclination: 70.8 °
Period: 100.6 minutes
Semi major axis: 7165 km
RCS: 0.0658 m2 (small)
Launch date: December 25, 1992
Source: Commonwealth of Independent States (former USSR) (CIS)

Note: This is SATELLITE DEBRIS
Your satellite tracking list
Your tracking list is empty





NASA's NSSDC Master Catalog

Two Line Element Set (TLE):
1 22289U 92093D   15181.39778337  .00000052  00000-0  38074-4 0  9992
2 22289 070.8323 039.2735 0061162 007.4354 049.6263 14.31242631174937

Source of the keplerian elements: AFSPC

N2YO: 349